"Pseudo-MPEC" for P21YQz0

Created 2024 Oct 3 22:22:19 UT using Find_Orb

Click here for an explanation of pseudo-MPECs

 
 Astrometry: 
     P21YQz0* C2024 09 13.47443201 03 19.058-19 48 18.31   ~9P1M 22.63wXNEOCPF52
     P21YQz0  C2024 09 13.48498801 03 18.269-19 48 21.81   ~9P1M 22.60wXNEOCPF52
     P21YQz0  C2024 09 13.50614101 03 16.686-19 48 28.14   ~9P1M 22.36wXNEOCPF52
     P21YQz0  C2024 09 13.57682801 03 11.411-19 48 49.13   ~9P1M 22.87GVNEOCPF52
     P21YQz0  C2024 09 13.57765801 03 11.350-19 48 49.42   ~9P1M 22.69GVNEOCPF52

Station data:
(F52) Pan-STARRS 2, Haleakala  (N20.707382 W156.255910)  US/Hawaii.
   Observers J. Bulger, T. Dukes, T. Lowe, A. Schultz, M. Willman. Measurers
   K. Chambers, S. Chastel, T. de Boer, L. Denneau, J. Fairlamb, H.
   Flewelling, M. Huber, C.-C. Lin, E. Magnier, Y. Ramanjooloo, R. Wainscoat,
   R. Weryk. 1.8-m Ritchey-Chrétien + CCD.

Orbital elements:  P21YQz0
   Perihelion 2023 Aug 23.21827 +/- 349 TT =  5:14:18 (JD 2460179.71827)
Epoch 2024 Sep 14.0 TT = JDT 2460567.5   Earth MOID: 0.0497      AutoNEOCP
M 133.92687265 +/- 110              (J2000 ecliptic)
n   0.34536663 +/- 0.203            Peri.  159.87714 +/- 60
a   2.01194357 +/- 0.79             Node    36.77193 +/- 35
e   0.4848668 +/- 0.248             Incl.   26.22747 +/- 44
P   2.85380                H 18.34  G  0.15   U 11.7  SR
q 1.03641888 +/- 1.08    Q 2.98746825 +/- 34.7
From 5 observations 2024 Sept. 13 (2.5 hr); mean residual 0".08
Residuals in arcseconds: 
240913 F52  .02+  .17+    240913 F52  .04-  .08-    240913 F52  .01+  .00     
240913 F52  .01+  .13-    240913 F52  .00   .04+    

Ephemerides (geocentric):
Date (UTC) HH   RA             Dec           delta  r     elong  mag " sig PA
---- --------  ------------   ------------  ------ ------ -----  --- --------
2024 10 03 22  00 36 23.630   -20 50 34.19  1.9463 2.8834 154.9 22.7  17d  76
2024 10 03 23  00 36 20.283   -20 50 35.91  1.9465 2.8834 154.8 22.7  17d  76
2024 10 04 00  00 36 16.936   -20 50 37.60  1.9466 2.8835 154.8 22.7  17d  76
2024 10 04 01  00 36 13.591   -20 50 39.27  1.9468 2.8836 154.8 22.7  17d  76
2024 10 04 02  00 36 10.245   -20 50 40.91  1.9470 2.8837 154.8 22.7  17d  76
2024 10 04 03  00 36 06.901   -20 50 42.52  1.9472 2.8837 154.8 22.7  17d  76
2024 10 04 04  00 36 03.557   -20 50 44.10  1.9474 2.8838 154.7 22.7  17d  76
2024 10 04 05  00 36 00.214   -20 50 45.66  1.9476 2.8839 154.7 22.7  17d  76
2024 10 04 06  00 35 56.872   -20 50 47.19  1.9477 2.8840 154.7 22.7  17d  76
2024 10 04 07  00 35 53.530   -20 50 48.69  1.9479 2.8841 154.7 22.7  17d  76
2024 10 04 08  00 35 50.189   -20 50 50.17  1.9481 2.8841 154.7 22.7  17d  76
2024 10 04 09  00 35 46.849   -20 50 51.62  1.9483 2.8842 154.6 22.7  17d  76
2024 10 04 10  00 35 43.510   -20 50 53.05  1.9485 2.8843 154.6 22.7  17d  76
2024 10 04 11  00 35 40.171   -20 50 54.44  1.9487 2.8844 154.6 22.7  17d  76
2024 10 04 12  00 35 36.833   -20 50 55.81  1.9489 2.8844 154.6 22.7  17d  76
2024 10 04 13  00 35 33.496   -20 50 57.16  1.9491 2.8845 154.6 22.7  17d  76
2024 10 04 14  00 35 30.159   -20 50 58.47  1.9492 2.8846 154.5 22.7  17d  76
2024 10 04 15  00 35 26.823   -20 50 59.77  1.9494 2.8847 154.5 22.7  17d  76
2024 10 04 16  00 35 23.488   -20 51 01.03  1.9496 2.8847 154.5 22.7  17d  76
2024 10 04 17  00 35 20.154   -20 51 02.27  1.9498 2.8848 154.5 22.7  17d  76
2024 10 04 18  00 35 16.820   -20 51 03.48  1.9500 2.8849 154.5 22.7  17d  76
2024 10 04 19  00 35 13.488   -20 51 04.66  1.9502 2.8850 154.5 22.7  17d  76
2024 10 04 20  00 35 10.156   -20 51 05.81  1.9504 2.8850 154.4 22.7  17d  76
2024 10 04 21  00 35 06.824   -20 51 06.94  1.9506 2.8851 154.4 22.7  17d  77
2024 10 04 22  00 35 03.494   -20 51 08.05  1.9508 2.8852 154.4 22.7  17d  77
2024 10 04 23  00 35 00.164   -20 51 09.12  1.9510 2.8853 154.4 22.7  17d  77
2024 10 05 00  00 34 56.836   -20 51 10.17  1.9512 2.8854 154.3 22.7  17d  77
2024 10 05 01  00 34 53.508   -20 51 11.19  1.9514 2.8854 154.3 22.7  17d  77
2024 10 05 02  00 34 50.180   -20 51 12.19  1.9516 2.8855 154.3 22.7  17d  77
2024 10 05 03  00 34 46.854   -20 51 13.16  1.9518 2.8856 154.3 22.7  17d  77
2024 10 05 04  00 34 43.529   -20 51 14.10  1.9520 2.8857 154.3 22.7  17d  77
2024 10 05 05  00 34 40.204   -20 51 15.02  1.9522 2.8857 154.2 22.7  17d  77
2024 10 05 06  00 34 36.880   -20 51 15.90  1.9524 2.8858 154.2 22.7  17d  77
2024 10 05 07  00 34 33.557   -20 51 16.77  1.9526 2.8859 154.2 22.7  17d  77
2024 10 05 08  00 34 30.235   -20 51 17.60  1.9527 2.8860 154.2 22.7  17d  77
2024 10 05 09  00 34 26.913   -20 51 18.41  1.9529 2.8860 154.2 22.7  17d  77
2024 10 05 10  00 34 23.593   -20 51 19.19  1.9531 2.8861 154.1 22.7  17d  77
2024 10 05 11  00 34 20.273   -20 51 19.94  1.9533 2.8862 154.1 22.7  18d  77
2024 10 05 12  00 34 16.954   -20 51 20.67  1.9535 2.8863 154.1 22.7  18d  77
2024 10 05 13  00 34 13.636   -20 51 21.37  1.9538 2.8863 154.1 22.7  18d  77
2024 10 05 14  00 34 10.319   -20 51 22.04  1.9540 2.8864 154.1 22.7  18d  77
2024 10 05 15  00 34 07.003   -20 51 22.69  1.9542 2.8865 154.0 22.7  18d  77
2024 10 05 16  00 34 03.688   -20 51 23.31  1.9544 2.8866 154.0 22.7  18d  77
2024 10 05 17  00 34 00.373   -20 51 23.90  1.9546 2.8866 154.0 22.7  18d  77
2024 10 05 18  00 33 57.060   -20 51 24.47  1.9548 2.8867 154.0 22.7  18d  77
2024 10 05 19  00 33 53.747   -20 51 25.01  1.9550 2.8868 153.9 22.7  18d  77
2024 10 05 20  00 33 50.435   -20 51 25.52  1.9552 2.8869 153.9 22.7  18d  77
2024 10 05 21  00 33 47.124   -20 51 26.00  1.9554 2.8869 153.9 22.7  18d  77